sat.trackr.live / text

‹ back to catalog

STARLINK-35043

NORAD 65436 · 2025-194C

PAYLOAD ACTIVE UNKNOWN

§ Identity

Operator
Country
US
Launch date
2025-09-03
Launch site
AFWTR
Launch vehicle
Mass (kg)
RCS (m²)

Purposes: comms

External: N2YO · Heavens-Above · Gunter

§ Orbital elements

Epoch: 2026-09-20T20:01:31.743552Z

Period
95.33 min
Inclination
97.2849°
Eccentricity
0.0002170
Mean motion
15.10570529 rev/d
Perigee alt
533.0 km
Apogee alt
536.0 km
Semi-major
6,912.6 km
B*
2.3559e-4
RAAN
113.5917°
Arg perigee
84.5964°
Mean anomaly
275.5514°
Rev number
5,903

§ Raw data

STARLINK-350431 65436U 25194C   26263.83439518  .00003828  00000+0  23559-3 0  99922 65436  97.2849 113.5917 0002170  84.5964 275.5514 15.10570529 59039

JSON: /api/v1/satellites/65436 · /tle

For live sub-satellite position, see the globe view (requires WebGL).

§ Visibility from observer

Set your observer location to see the next 7 days of passes ≥ 10°. The values pass through the URL so the page stays shareable.

No JS? Fill the form by hand. The geolocation button needs JavaScript.